Location: Peebles
(55.6412°N, 3.1714°W)
Time: 05:25:56
(UTC+01:00)

FENGYUN 1C DEB - Pass Details

Date: 11 July 2022
Orbit: 749 x 887 km, 98.1° (Epoch: 14 August)

Event Time Altitude Azimuth Distance (km) Brightness Sun altitude
Rises 00:35:40 0° 25° (NNE) 3,497 ? -11.7°
Reaches altitude 10° 00:39:46 10° 54° (NE) 2,534 ? -11.8°
Maximum altitude 00:42:06 13° 79° (E) 2,336 ? -11.8°
Drops below altitude 10° 00:44:25 10° 104° (ESE) 2,498 ? -11.9°
Enters shadow 00:47:07 - 125° (SE) 3,054 ? -11.9°
